Starlink 31255

operational
NORAD ID: 58893 Int'l Des: 2024-020 Owner: SPXS Country: US Constellation: starlink
LEOCIRCULAR

Über Starlink 31255

Beschreibung wird geladen...

Live-Position

3D-Globus wird geladen...

Nächste Überflüge

Höhenverlauf

Altitude vs Time

uPlot chart will show altitude changes over time

Zweizeiliger Elementsatz

1 58893U 24020T 25353.37645139 .00001185 00000-0 52137-4 0 9994
2 58893 53.1611 335.5475 0001209 82.6202 277.4936 15.30195676105777
Epoch: 19. Dez. 2025 • Age: 22 hours

Aktueller Status

Höhe 483.2 km
Geschwindigkeit 7.62 km/s
Subsatellitenpunkt -25.87°S, 118.48°E
Startdatum 29. Jan. 2024
Alter 1.8 years
Typ internet

Technische Details

Klassifizierung Payload
Masse 730.00 kg
Trockenmasse 700.00 kg
Gesamtmasse 730.00 kg
Länge 0.30 m
Durchmesser 4.10 m
Spannweite 29.00 m
Form Box + pan
Hersteller SPXS
Bus-Typ Starlink V2M
Phasenstatus In Orbit
Besitzer/Staat SPXS/US

Große Konstellationen

Loading constellations...